Elm City, NC

5:10 PM EST on February 24, 2017 (GMT -0500)
Rocky Mount-Wilson Regional

Weather History for KRWI - January, 2012

Change the Weather History Date:

Friday, January 13, 2012

  Actual Average Record
Temperature  
Mean Temperature 44 °F -  
Max Temperature 55 °F 47 °F 77 °F (2005)
Min Temperature 34 °F 27 °F 2 °F (1962)
Degree Days  
Heating Degree Days 20    
Moisture  
Dew Point 23 °F    
Average Humidity 49    
Maximum Humidity 69    
Minimum Humidity 35    
Precipitation  
Precipitation 0.00 in - - ()
Sea Level Pressure  
Sea Level Pressure 29.86 in    
Wind  
Wind Speed 14 mph (WSW)    
Max Wind Speed 22 mph    
Max Gust Speed 37 mph    
Visibility 10 miles    
Events      
Averages and records for this station are not official NWS values.
T = Trace of Precipitation, MM = Missing Value Source: NWS Daily Summary

Daily Weather History Graph

Daily Weather History Graph

Search for Another Location

Airport or City:

Trip Planner

Search our weather history database for the weather conditions in past years. The results will help you decide how hot, cold, wet, or windy it might be!

Date:

Astronomy

Jan. 13, 2012 Rise Set
Actual Time 7:21 AM EST 5:18 PM EST
Civil Twilight 6:53 AM EST 5:46 PM EST
Nautical Twilight 6:22 AM EST 6:18 PM EST
Astronomical Twilight 5:51 AM EST 6:49 PM EST
Moon 10:17 PM EST (1/13) 9:45 AM EST (1/13)
Length of Visible Light 10h 53m
Length of Day
9h 57m
Waning Gibbous, 79% of the Moon is Illuminated
Jan 13
Waning Gibbous
Jan 16
Last Quarter
Jan 23
New
Jan 30
First Quarter
Feb 7
Full

Hourly Weather History & Observations

Time (EST) Temp. Windchill Dew Point Humidity Pressure Visibility Wind Dir Wind Speed Gust Speed Precip Events Conditions
12:53 AM 55.9 °F - 46.0 °F 69% 29.53 in 10.0 mi SSW 13.8 mph 27.6 mph N/A   Partly Cloudy
1:53 AM 55.9 °F - 46.0 °F 69% 29.54 in 10.0 mi SW 19.6 mph 27.6 mph N/A   Scattered Clouds
2:53 AM 54.0 °F - 33.1 °F 45% 29.56 in 10.0 mi SW 19.6 mph 32.2 mph N/A   Clear
3:53 AM 46.9 °F - 26.1 °F 44% 29.65 in 10.0 mi WSW 21.9 mph 36.8 mph N/A   Clear
4:53 AM 42.1 °F 34.2 °F 26.1 °F 53% 29.71 in 10.0 mi SW 16.1 mph 24.2 mph N/A   Clear
5:53 AM 39.0 °F 31.4 °F 24.1 °F 55% 29.75 in 10.0 mi SW 12.7 mph 20.7 mph N/A   Clear
6:53 AM 37.0 °F 28.1 °F 21.0 °F 52% 29.80 in 10.0 mi WSW 15.0 mph 21.9 mph N/A   Clear
7:53 AM 36.0 °F 26.7 °F 17.1 °F 46% 29.83 in 10.0 mi WSW 15.0 mph 23.0 mph N/A   Clear
8:53 AM 37.0 °F 27.7 °F 16.0 °F 42% 29.87 in 10.0 mi WSW 16.1 mph 26.5 mph N/A   Clear
9:53 AM 37.9 °F 28.9 °F 18.0 °F 45% 29.89 in 10.0 mi WSW 16.1 mph 23.0 mph N/A   Clear
10:53 AM 39.0 °F 29.9 °F 17.1 °F 41% 29.90 in 10.0 mi West 17.3 mph 24.2 mph N/A   Clear
11:53 AM 41.0 °F 32.5 °F 18.0 °F 40% 29.89 in 10.0 mi SW 17.3 mph 24.2 mph N/A   Clear
12:53 PM 42.1 °F 34.5 °F 19.0 °F 40% 29.88 in 10.0 mi WSW 15.0 mph 25.3 mph N/A   Clear
1:53 PM 44.1 °F 39.0 °F 18.0 °F 35% 29.88 in 10.0 mi West 9.2 mph 23.0 mph N/A   Clear
2:53 PM 45.0 °F 39.7 °F 19.0 °F 36% 29.90 in 10.0 mi West 10.4 mph 20.7 mph N/A   Clear
3:53 PM 43.0 °F 38.8 °F 18.0 °F 37% 29.92 in 10.0 mi Variable 6.9 mph 16.1 mph N/A   Clear
4:53 PM 42.1 °F 37.1 °F 18.0 °F 38% 29.95 in 10.0 mi West 8.1 mph - N/A   Clear
5:53 PM 37.0 °F 31.6 °F 19.9 °F 50% 29.98 in 10.0 mi WSW 6.9 mph - N/A   Clear
6:53 PM 34.0 °F 28.8 °F 21.9 °F 61% 30.01 in 10.0 mi SW 5.8 mph - N/A   Clear
7:53 PM 34.0 °F 28.8 °F 21.9 °F 61% 30.02 in 10.0 mi SW 5.8 mph - N/A   Clear
8:53 PM 36.0 °F 30.3 °F 21.0 °F 55% 30.03 in 10.0 mi SW 6.9 mph - N/A   Clear
9:53 PM 35.6 °F 30.7 °F 21.2 °F 56% 30.03 in 10.0 mi SW 5.8 mph - N/A   Clear
10:53 PM 37.0 °F 30.4 °F 19.9 °F 50% 30.06 in 10.0 mi WNW 9.2 mph - N/A   Clear
11:53 PM 35.1 °F 30.1 °F 18.0 °F 50% 30.05 in 10.0 mi West 5.8 mph - N/A   Clear